Regional Weather Roundup
Issued by NWS Cleveland, OH

Home | Current Version | Previous Version | Graphics & Text | Print | Product List | Glossary On
Versions: 1 2 3 4 5 6 7 8 9 10 11 12 13 14 15 16 17 18 19 20 21 22 23 24 25 26 27 28 29 30 31 32 33 34 35 36 37 38 39 40 41 42 43 44 45 46 47 48 49 50
000
ASUS41 KCLE 221800
RWRCLE
OHIO REGIONAL WEATHER ROUNDUP
NATIONAL WEATHER SERVICE WILMINGTON, OH
200 PM EDT TUE AUG 22 2017

NOTE: "FAIR" INDICATES FEW OR NO CLOUDS BELOW 12,000 FEET WITH NO
SIGNIFICANT WEATHER AND/OR OBSTRUCTIONS TO VISIBILITY.

OHZ001>008-015>018-024>027-034-035-043-044-221900-
   NORTHWEST OHIO

CITY           SKY/WX    TMP DP  RH WIND       PRES   REMARKS
DEFIANCE       PTSUNNY   75  66  73 SW9G17    29.86S
FINDLAY        LGT RAIN  74  68  81 SW10      29.86F
TOLEDO EXPRESS PTSUNNY   75  68  78 SW17      29.83F
TOLEDO EXEC    PTSUNNY   77  67  71 SW16      29.83F
LIMA           LGT RAIN  73  70  90 SW14      29.89F
$$

OHZ009>014-019>023-028>033-038-089-221900-
   NORTHEAST OHIO

CITY           SKY/WX    TMP DP  RH WIND       PRES   REMARKS
CLE-HOPKINS    LGT RAIN  74  69  85 SW14      29.85R
CLE-LAKEFRONT  LGT RAIN  75  72  90 W14       29.81R
CUY CO. ARPT   LGT RAIN  75  72  88 W17G23    29.83S FOG
LORAIN-ELYRIA  LGT RAIN  74  67  78 W9        29.85S
ASHTABULA      LGT RAIN  72  68  87 W18G40    29.81F FOG
AKRON-CANTON   CLOUDY    84  68  58 W21G32    29.86F
WOOSTER        NOT AVBL
MANSFIELD      PTSUNNY   78  68  71 SW18G28   29.89S
YOUNGSTOWN     CLOUDY    83  72  69 SW18G24   29.83F
$$

OHZ042-051>053-060>062-070>072-077>081-221900-
  SOUTHWEST OHIO

CITY           SKY/WX    TMP DP  RH WIND       PRES   REMARKS
CINC-COVINGTON HVY RAIN  76  75  97 NW12      29.95S FOG
CINC-LUNKEN    RAIN      80  75  84 W12       29.93F
HAMILTON       PTSUNNY   79  72  79 NW10      29.95S
DAYTON         NOT AVBL
WRIGHT-PAT AFB NOT AVBL
DAYTON GENERAL LGT RAIN  74  69  85 NW13      29.96R
WILMINGTON     TSTM      73  72  96 W13       29.94R FOG
$$

OHZ036-037-039>041-045>050-054>059-063>069-073>076-082>088-221900-
  CENTRAL AND SOUTHEAST OHIO

CITY           SKY/WX    TMP DP  RH WIND       PRES   REMARKS
COLUMBUS       CLOUDY    75  73  93 W6        29.89F
OSU AIRPORT    FAIR      77  74  90 W10       29.91S
BOLTON FIELD   CLOUDY    73  72  94 W8        29.92S
RICKENBACK AFB NOT AVBL
NEWARK         TSTM      71  68  90 SW10      29.91F VSB 3/4
MARION         CLOUDY    77  66  68 W13       29.90S
LANCASTER      PTSUNNY   84  73  69 VRB7G17   29.91F HX  90
ZANESVILLE     PTSUNNY   85  72  65 SW12      29.88F HX  91
NEW PHILLY     FAIR      83  74  74 VRB6      29.88F
$$




USA.gov is the U.S. government's official web portal to all federal, state and local government web resources and services.